This is the latest recevied weather packets stored in our database for station/object KI4FRU. If no packets are shown the sender has not sent any weather packets the latest 10 day(s).
| Time | Temp. | Humidity | Pressure | Rain* | Wind** | Luminosity | Snow |
|---|---|---|---|---|---|---|---|
| 1778005996 | 28.89° C | 46% | 1054.1 hPa | 0 mm | - | 150 W/m² | - |
| 1778005693 | 27.22° C | 48% | 1054.1 hPa | 0 mm | - | 414 W/m² | - |
| 1778005390 | 26.67° C | 46% | 1054.5 hPa | 0 mm | - | 516 W/m² | - |
| 1778005086 | 25.56° C | 49% | 1054.6 hPa | 0 mm | - | 384 W/m² | - |
| 1778004784 | 27.22° C | 46% | 1054.3 hPa | 0 mm | - | 298 W/m² | - |
| 1778004480 | 27.78° C | 45% | 1054.7 hPa | 0 mm | - | 550 W/m² | - |
| 1778004176 | 27.78° C | 48% | 1054.7 hPa | 0 mm | - | 242 W/m² | - |
| 1778003873 | 28.33° C | 48% | 1054.7 hPa | 0 mm | - | 134 W/m² | - |
| 1778003570 | 28.89° C | 44% | 1054.6 hPa | 0 mm | - | 142 W/m² | - |
| 1778003266 | 28.33° C | 46% | 1054.6 hPa | 0 mm | - | 145 W/m² | - |
| 1778002963 | 27.78° C | 48% | 1054.9 hPa | 0 mm | - | 734 W/m² | - |
| 1778002659 | 26.67° C | 47% | 1054.9 hPa | 0 mm | - | 449 W/m² | - |
| 1778002356 | 26.11° C | 47% | 1054.9 hPa | 0 mm | - | 272 W/m² | - |
| 1778002053 | 26.11° C | 50% | 1054.8 hPa | 0 mm | - | 389 W/m² | - |
| 1778001750 | 27.22° C | 49% | 1054.7 hPa | 0 mm | - | 201 W/m² | - |
| 1778001450 | 26.11° C | 48% | 1054.8 hPa | 0 mm | - | 625 W/m² | - |
| 1778001147 | 26.11° C | 52% | 1054.7 hPa | 0 mm | - | 662 W/m² | - |
| 1778000844 | 26.11° C | 51% | 1054.9 hPa | 0 mm | - | 507 W/m² | - |
| 1778000541 | 26.11° C | 51% | 1054.9 hPa | 0 mm | - | 697 W/m² | - |
| 1778000236 | 26.11° C | 51% | 1055.1 hPa | 0 mm | - | 677 W/m² | - |
| 1777999932 | 26.67° C | 53% | 1055 hPa | 0 mm | - | 136 W/m² | - |
| 1777999628 | 26.11° C | 55% | 1055 hPa | 0 mm | - | 109 W/m² | - |
| 1777999325 | 26.67° C | 50% | 1055.1 hPa | 0 mm | - | 182 W/m² | - |
| 1777999023 | 26.67° C | 48% | 1055.3 hPa | 0 mm | - | 737 W/m² | - |
| 1777998721 | 26.11° C | 52% | 1055.4 hPa | 0 mm | - | 695 W/m² | - |
* Rain latest hour (hover to see other rain measurements)
** Current wind speed in m/s (hover to see current wind gust speed)